Location: Mason Neck State Park
(38.6428°N, 77.1981°W)
Time: 02:14:45
(UTC-04:00)

Cosmos 2278 Rocket - Visible Passes

Search period start: 31 October 2014 00:00
Search period end: 09 November 2014 23:00
Orbit: 842 x 845 km, 71.0° (Epoch: 30 October)

Date Brightness Start Highest point End Pass type
(mag) Time Alt. Az. Time Alt. Az. Time Alt. Az.
31 Oct 4.0 19:08:01 10° NW 19:13:05 35° WSW 19:18:08 10° SSW visible
01 Nov 4.0 18:53:30 10° NW 18:58:38 37° WSW 19:03:44 10° S visible
02 Nov 3.9 17:38:59 10° NW 17:44:10 38° WSW 17:49:20 10° S visible
03 Nov 3.9 17:24:29 10° NW 17:29:43 40° WSW 17:34:55 10° S visible
06 Nov 2.8 06:01:17 10° S 06:06:50 64° ESE 06:12:26 10° NNE visible
07 Nov 2.8 05:46:50 10° S 05:52:22 61° ESE 05:57:56 10° NNE visible
08 Nov 2.9 05:32:23 10° S 05:37:54 58° ESE 05:43:27 10° NNE visible
09 Nov 2.9 05:17:57 10° S 05:23:26 56° ESE 05:28:57 10° NNE visible
